星链-4560 (STARLINK-4560 )

导读

STARLINK-4560是美国于2022年8月31日发射的星链卫星,隶属于太空探索技术公司SpaceX打造的星链卫星互联网星座项目。星链星座旨在为全球用户提供低延迟、高速率的互联网覆盖服务,该卫星入轨后承担了部分全球通信网络节点任务,是星链规模化组网进程中的组成单元。

基本信息
目录编号:
53691
目录名称:
STARLINK-4560
国际标识:
2022-105AV
轨道中心:
EARTH
卫星名称:
星链-4560
卫星全名:
星链-4560 (STARLINK-4560 )
卫星状态:
在轨 (已飞行1382 天)
发射日期:
2022-08-31 UTC
国别 :
美国 (US)
星等 :
--
轨道信息
数据来源 国际轨道数据 AOE轨道数据
星历时间 2026-06-13T13:52:37+0800
13小时前
查看轨道信息
2026-06-10T07:00:00+0800
3天前
查看轨道信息
半长轴 6927.653km 6927.667km
偏心率 0.0002315 0.0002073
轨道倾角 97.368° 97.379°
近地点辐角 80.505° 73.103°
升交点赤经 44.530° 41.385°
平近点角 279.643° 124.140°
近地点 547.912km 548.093km
远地点 551.12km 550.967km
周期 95.640分钟 95.640分钟
每日圈数 15.056485 15.056441
详细信息
固有亮度:
5
最大亮度:
2.5
卫星平台:
Starlink v1.5
覆盖范围:
全球
运营商:
太空探索技术公司
运营商所在国:
美国
制造商(研发单位):
太空探索技术公司
制造商所在国:
美国
使用方式:
暂无
卫星简介
星链(Starlink)计划是由太空探索技术公司(SpaceX)提出的一个巨型低轨卫星互联网星座项目,计划在2019年至2024年间在太空搭建由约1.2万颗卫星组成的“星链”网络,其中1584颗将部署在地球上空550千米处的近地轨道,并从2020年开始工作。该卫星仍在工作。
2D轨道图
3D轨道图
轨道高度分析图
轨道倾角分析图
轨道综合分析图
查看轨道综合分析图